FW1895 Weather Reports


time (UTC)temp
C
wind
direction
speed
KPH
gust
KPH
rain 1hr
cm
rain 24hr
cm
rain mn
cm
humidity
%
barometer
mb
20260507040035 20 345 0.0 0.0 0.00 0.00 0.00 48 1016.0
20260507034538 20 339 0.0 0.0 0.00 0.00 0.00 47 1015.8
20260507033033 19 57 0.0 0.0 0.00 0.00 0.00 47 1015.5
20260507031532 18 54 0.0 0.0 0.00 0.00 0.00 46 1015.3
20260507030032 20 167 0.0 0.0 0.00 0.00 0.00 42 1015.0
20260507024531 23 163 0.0 0.0 0.00 0.00 0.00 37 1014.9
20260507023031 25 360 0.0 0.0 0.00 0.00 0.00 27 1014.8
20260507021531 25 360 0.0 0.0 0.00 0.00 0.00 24 1015.0
20260507020039 26 360 0.0 0.0 0.00 0.00 0.00 22 1014.8
20260507014527 26 360 0.0 0.0 0.00 0.00 0.00 22 1015.0
20260507013044 26 360 0.0 0.0 0.00 0.00 0.00 23 1014.9
20260507011526 27 360 0.0 0.0 0.00 0.00 0.00 22 1014.9
20260507010129 27 171 0.0 0.0 0.00 0.00 0.00 22 1014.9
20260507004524 27 360 0.0 0.0 0.00 0.00 0.00 23 1015.0
20260507003024 27 134 0.0 0.0 0.00 0.00 0.00 23 1014.9
20260507001528 27 193 0.0 0.0 0.00 0.00 0.00 24 1015.2
20260507000022 27 360 0.0 0.0 0.00 0.00 0.00 24 1015.1
20260506234529 27 360 0.0 0.0 0.00 0.00 0.00 24 1015.1
20260506233034 27 360 0.0 0.0 0.00 0.00 0.00 26 1015.3
20260506231527 28 257 0.0 0.0 0.00 0.00 0.00 22 1015.4
20260506230021 27 250 0.0 0.0 0.00 0.00 0.00 22 1015.3
20260506224518 27 240 0.0 0.0 0.00 0.00 0.00 23 1015.6
20260506223014 26 263 0.0 0.0 0.00 0.00 0.00 24 1015.8
20260506221513 26 175 0.0 0.0 0.00 0.00 0.00 26 1015.9
20260506220021 26 201 0.0 0.0 0.00 0.00 0.00 26 1016.4
20260506214510 26 360 0.0 0.0 0.00 0.00 0.00 27 1016.4
20260506213004 25 219 0.0 0.0 0.00 0.00 0.00 29 1016.7
20260506211501 25 360 0.0 0.0 0.00 0.00 0.00 29 1016.9
20260506210059 25 360 0.0 0.0 0.00 0.00 0.00 31 1017.0
20260506204555 24 360 0.0 0.0 0.00 0.00 0.00 31 1017.0
20260506203055 24 119 0.0 0.0 0.00 0.00 0.00 33 1017.2
20260506201552 23 360 0.0 0.0 0.00 0.00 0.00 33 1017.3
20260506200051 23 360 0.0 0.0 0.00 0.00 0.00 35 1017.6
20260506194550 23 360 0.0 0.0 0.00 0.00 0.00 34 1017.8
20260506193048 23 360 0.0 0.0 0.00 0.00 0.00 34 1018.1
20260506191545 22 360 0.0 0.0 0.00 0.00 0.00 36 1018.3
20260506190042 21 360 0.0 0.0 0.00 0.00 0.00 37 1018.4
20260506184539 21 360 0.0 0.0 0.00 0.00 0.00 40 1018.6
20260506183038 21 360 0.0 0.0 0.00 0.00 0.00 40 1018.8
20260506181534 20 360 0.0 0.0 0.00 0.00 0.00 43 1018.9
20260506180031 19 360 0.0 0.0 0.00 0.00 0.00 44 1019.1
20260506174526 18 284 0.0 0.0 0.00 0.00 0.00 46 1019.1
20260506173024 17 148 0.0 0.0 0.00 0.00 0.00 48 1019.1
20260506171519 17 360 0.0 0.0 0.00 0.00 0.00 49 1019.2
20260506170015 17 360 0.0 0.0 0.00 0.00 0.00 50 1019.2
20260506164514 16 297 0.0 0.0 0.00 0.00 0.00 51 1019.3
20260506163010 16 158 0.0 0.0 0.00 0.00 0.00 52 1019.4
20260506161506 15 152 0.0 0.0 0.00 0.00 0.00 54 1019.3
20260506160006 15 360 0.0 0.0 0.00 0.00 0.00 56 1019.4
20260506154557 14 360 0.0 0.0 0.00 0.00 0.00 56 1019.4
20260506153052 13 360 0.0 0.0 0.00 0.00 0.00 58 1019.3
20260506151548 12 360 0.0 0.0 0.00 0.00 0.00 64 1019.3
20260506150044 11 360 0.0 0.0 0.00 0.00 0.00 73 1019.4
20260506144539 9 360 0.0 0.0 0.00 0.00 0.00 79 1019.3
20260506143038 8 360 0.0 0.0 0.00 0.00 0.00 84 1019.1
20260506141534 6 360 0.0 0.0 0.00 0.00 0.00 86 1019.0
20260506140029 6 360 0.0 0.0 0.00 0.00 0.00 87 1018.8
20260506134524 5 69 0.0 0.0 0.00 0.00 0.00 87 1018.7
20260506133024 5 69 0.0 0.0 0.00 0.00 0.00 85 1018.8
20260506131521 5 69 0.0 0.0 0.00 0.00 0.00 84 1018.6
20260506130020 5 69 0.0 0.0 0.00 0.00 0.00 83 1018.5
20260506124515 5 69 0.0 0.0 0.00 0.00 0.00 83 1018.2
20260506123011 5 69 0.0 0.0 0.00 0.00 0.00 83 1018.1
20260506121506 5 69 0.0 0.0 0.00 0.00 0.00 82 1018.1
20260506120004 6 69 0.0 0.0 0.00 0.00 0.00 81 1018.0
20260506114503 6 69 0.0 0.0 0.00 0.00 0.00 80 1017.9
20260506113109 6 69 0.0 0.0 0.00 0.00 0.00 79 1017.8
20260506111559 6 69 0.0 0.0 0.00 0.00 0.00 79 1017.8
20260506110057 6 69 0.0 0.0 0.00 0.00 0.00 79 1017.8
20260506104555 6 69 0.0 0.0 0.00 0.00 0.00 77 1017.7
20260506103055 7 69 0.0 0.0 0.00 0.00 0.00 75 1017.4
20260506101550 8 69 0.0 0.0 0.00 0.00 0.00 76 1017.4
20260506100049 8 69 0.0 0.0 0.00 0.00 0.00 76 1017.5
20260506094549 8 69 0.0 0.0 0.00 0.00 0.00 75 1017.3
20260506093049 8 360 0.0 0.0 0.00 0.00 0.00 75 1017.2
20260506091545 8 360 0.0 0.0 0.00 0.00 0.00 75 1017.2
20260506090046 8 360 0.0 0.0 0.00 0.00 0.00 75 1017.4
20260506084545 8 360 0.0 0.0 0.00 0.00 0.00 75 1017.4
20260506083046 8 360 0.0 0.0 0.00 0.00 0.00 74 1017.4
20260506081549 8 360 0.0 0.0 0.00 0.00 0.00 74 1017.2
20260506073046 9 360 0.0 0.0 0.00 0.00 0.00 73 1017.4
20260506071550 9 360 0.0 0.0 0.00 0.00 0.00 72 1017.5
20260506061540 10 360 0.0 0.0 0.00 0.00 0.00 70 1017.1
20260506044544 11 360 0.0 0.0 0.00 0.00 0.00 66 1016.3
20260506043033 11 360 0.0 0.0 0.00 0.00 0.00 65 1016.1
20260506041535 11 360 0.0 0.0 0.00 0.00 0.00 65 1015.7